Weather Roundup
Issued by NWS Chicago, IL

Home | Current Version | Previous Version | Text Only | Print | Product List | Glossary On
Versions: 1 2 3 4 5 6 7 8 9 10 11 12 13 14 15 16 17 18 19 20 21 22 23 24 25 26 27 28 29 30 31 32 33 34 35 36 37 38 39 40 41 42 43 44 45 46 47 48 49 50
000
NZUS59 KLOT 241800
HRRLOT

CHICAGO AREA WEATHER ROUNDUP
NATIONAL WEATHER SERVICE CHICAGO/ROMEOVILLE IL
100 PM CDT THU JUL 24 2014

NOTE: "FAIR" INDICATES FEW OR NO CLOUDS BELOW 12,000 FEET WITH NO
SIGNIFICANT WEATHER AND/OR OBSTRUCTIONS TO VISIBILITY.

* THESE STATIONS ARE NOT UNDER NWS QUALITY CONTROL. THEY ALSO MAY NOT
  REPORT WEATHER SUCH AS PRECIPITATION OR FOG.

ILZ005-006-012>014-019>023-241900-
NORTHEAST ILLINOIS

CITY           SKY/WX    TMP DP  RH WIND       PRES   REMARKS
OHARE          MOSUNNY   73  46  38 NE9       30.17S
6HR MIN TEMP:  59; 6HR MAX TEMP:  73;

MIDWAY         MOSUNNY   73  48  41 N12       30.16F
6HR MIN TEMP:  63; 6HR MAX TEMP:  74;

AURORA         SUNNY     74  49  41 NE7G17    30.16F
6HR MIN TEMP:  56; 6HR MAX TEMP:  75;

WAUKEGAN       SUNNY     69  48  47 NE9       30.17F
6HR MIN TEMP:  57; 6HR MAX TEMP:  70;

DUPAGE AIRPORT SUNNY     74  48  39 NE10G20   30.16F
6HR MIN TEMP:  58; 6HR MAX TEMP:  75;

WHEELING       SUNNY     72  46  39 N8        30.18F
6HR MIN TEMP:  59; 6HR MAX TEMP:  73;

NORTHERLY IS   NOT AVBL
$$

WIZ051-052-058>065-066-070>072-241900-
SOUTHEAST WISCONSIN

CITY           SKY/WX    TMP DP  RH WIND       PRES   REMARKS
MILWAUKEE      MOSUNNY   69  52  54 SE8       30.18F
6HR MIN TEMP:  59; 6HR MAX TEMP:  69;

KENOSHA*       SUNNY     70  50  49 E6        30.18F
RACINE*        SUNNY     68  53  58 SE7       30.20S
WAUKESHA       MOSUNNY   70  45  40 SE5       30.18F
$$

INZ001>003-010>013-019-020-241900-
NORTHWEST INDIANA

CITY           SKY/WX    TMP DP  RH WIND       PRES   REMARKS
GARY*          MOSUNNY   72  59  64 N14       30.17F
MICHIGAN CITY* NOT AVBL
RENSSELAER*    NOT AVBL
VALPARAISO     MOSUNNY   71  53  52 N9        30.15F
$$

LMZ740>746-241900-
SOUTHERN LAKE MICHIGAN

STATION/POSITION TIME  SKY/WX   TEMP WIND        PRES    VSBY
                                AIR  DIR/SP/G
                 (UTC)          (F)  (DEG/KT/KT) (MB)    (MI)
HARRISON CRIB    1700            62   20/ 10/ 11   N/A
BURNHAM HARBOR   1700            65   10/  9/ 10   N/A
CALUMET HARBOR   1700            65  350/  9/ 12 1020.5F
BURNS HARBOR     NOT AVBL
MICHIGAN CITY    1700            67  350/ 11/ 14   N/A
$$

ABBREVIATIONS USED IN REMARKS
   TC - TEMPERATURE IN CELSIUS
  WCI - WIND CHILL INDEX
   HX - HEAT INDEX
  VSB - VISIBILITY
$$


USA.gov is the U.S. government's official web portal to all federal, state and local government web resources and services.